TIANWANG 1B (TW-1B)
1 40927U 15051C   19217.37802186  .00006310  00000-0  96181-4 0  9998
2 40927  97.1347 262.7796 0007796 193.5967 279.9077 15.54804980217424
TIANWANG 1A (TW-1A)
1 40928U 15051D   19217.49288853  .00001681  00000-0  42753-4 0  9993
2 40928  97.1429 247.7376 0009343 258.4633 236.2474 15.40965907216534
LAPAN A2
1 40931U 15052B   19215.07574832 +.00000640 +00000-0 +41238-7 0  9999
2 40931 005.9990 092.8905 0012958 075.9377 284.2056 14.76610632207986
LQSAT
1 40958U 15057A   19216.77240319 -.00000023 +00000-0 +41309-5 0  9994
2 40958 097.8960 284.6910 0019633 090.6003 269.7455 14.73085077205745
CHUBUSAT 2
1 41338U 16012B   19216.33453206 +.00000215 +00000-0 +99111-5 0  9998
2 41338 031.0018 208.3477 0013831 205.2840 154.7119 15.00162998189920
CHUBUSAT 3
1 41339U 16012C   19217.09692228  .00000197  00000-0  84668-5 0  9992
2 41339  31.0096 201.5384 0013586 221.1070 138.8543 15.00337894190035
OUFTI-1
1 41458U 16025C   19216.83414525 +.00000665 +00000-0 +38104-4 0  9994
2 41458 098.1020 306.0774 0165947 198.0768 161.4514 15.05880487179669
E-STAR-2
1 41459U 16025D   19217.46002779  .00001865  00000-0  98890-4 0  9990
2 41459  98.1028 306.3680 0167668 197.6095 161.9284 15.05520384179731
AAUSAT 4
1 41460U 16025E   19217.50874730  .00001501  00000-0  78838-4 0  9998
2 41460  98.0973 307.7807 0157609 189.4508 170.3716 15.07428453179874
NUSAT 1
1 41557U 16033B   19216.89070563 +.00000853 +00000-0 +34607-4 0  9992
2 41557 097.4179 304.1178 0015201 127.3055 232.9572 15.27281777177290
BEESAT 4
1 41619U 16040W   19217.14398601  .00000865  00000-0  39496-4 0  9998
2 41619  97.3644 278.4777 0010437 209.0313 151.0345 15.23200963161087
PRATHAM
1 41783U 16059A   19217.40646172  .00000018  00000-0  12785-4 0  9990
2 41783  98.0641 275.9266 0032507 232.5041 127.3204 14.63002228152526
ALSAT 1N
1 41789U 16059G   19217.42277958  .00000045  00000-0  17666-4 0  9993
2 41789  98.0672 278.0420 0027557 221.6754 138.2356 14.64253140152634
NAYIF 1
1 42017U 17008BX  19217.18584042  .00000999  00000-0  42127-4 0  9999
2 42017  97.4003 283.7855 0006463  18.0380 342.1086 15.25610828137166
MAX VALIER SAT
1 42778U 17036P   19217.12697016  .00000602  00000-0  29249-4 0  9995
2 42778  97.3511 273.7409 0013900  62.3736 297.8909 15.22068597117455
